#timestamp,LO_Frequency,Hit,StdDev 
1568235615.5,286047001.2,N
1568235635.3,286046998.6,N
1568235655.2,286046999.0,N
1568235675.0,286046996.9,N
1568235675.9,286046996.9,N
1568235695.7,286046997.5,N
1568235715.6,286046996.8,N
1568235735.4,286046999.2,N
1568235755.3,286047000.7,N
1568235775.1,286047001.0,N
1568235795.8,286046998.8,N
1568235815.7,286046998.7,N
1568235835.5,286046998.6,N
1568235855.4,286047000.6,N
1568235875.2,286047000.3,N
1568235895.0,286046999.7,N
1568235895.9,286046999.7,N
1568235915.8,286047004.3,N
1568235935.6,286047001.4,N
1568235955.5,286047004.1,N
1568235975.3,286047002.1,N
1568235995.1,286047002.5,N
1568236015.9,286047000.1,N
1568236035.7,286047002.1,N
1568236055.5,286047002.0,N
1568236075.4,286047002.4,N
1568236095.2,286047000.0,N
1568236115.1,286047002.6,N
1568236116.0,286047002.6,N
1568236135.8,286047000.0,N
1568236155.6,286047000.6,N
1568236175.5,286047001.0,N
1568236195.3,286047000.4,N
1568236215.2,286047002.5,N
1568236235.9,286047002.3,N
1568236255.7,286047000.7,N
1568236275.6,286046998.2,N
1568236295.4,286047000.2,N
1568236315.3,286047000.6,N
1568236335.1,286047000.2,N
1568236336.0,286047000.2,N
1568236355.8,286047002.7,N
1568236375.7,286047001.9,N
1568236395.5,286047002.5,N
1568236415.4,286047001.8,N
1568236435.2,286047002.2,N
1568236455.0,286047002.5,N
1568236455.9,286047002.5,N
1568236475.8,286047002.5,N
1568236495.6,286047004.0,Y
1568236515.5,286047002.8,P
1568236535.3,286047002.5,P
1568236555.1,286047002.8,P
1568236575.9,286047001.7,Y
1568236595.7,286047000.2,P
1568236615.6,286047000.2,N
1568236635.4,286047002.6,N
1568236655.2,286047001.9,N
1568236675.1,286047001.9,N
1568236676.0,286047001.9,N
1568236695.8,286047001.7,N
1568236715.6,286047001.5,N
1568236735.5,286047002.1,N
1568236755.3,286047002.5,Y
1568236775.2,286046998.1,P
1568236795.9,286047000.6,N
1568236815.7,286047000.6,N
1568236835.6,286047000.7,N
1568236855.4,286047001.2,N
1568236875.3,286046998.9,N
1568236895.1,286046998.5,N
1568236896.0,286046998.5,N
1568236915.8,286046998.4,N
1568236935.7,286046999.0,N
1568236955.5,286046996.7,N
1568236975.3,286046999.5,N
1568236995.2,286046996.5,N
1568237015.0,286046998.9,N
1568237015.9,286046998.9,N
1568237035.8,286046999.6,N
1568237055.6,286046996.8,N
1568237075.4,286046997.4,N
1568237095.3,286046995.0,Y
1568237115.1,286046997.2,P
1568237135.9,286046997.3,P
1568237155.7,286046999.1,N
1568237175.5,286046996.9,Y
1568237195.4,286047001.2,P
1568237215.2,286047000.8,N
1568237235.1,286046998.6,N
1568237236.0,286046998.6,N
1568237255.8,286046998.2,N
1568237275.6,286047000.0,N
1568237295.5,286047000.8,N
1568237315.3,286047001.1,N
1568237335.1,286046999.4,N
1568237355.9,286046999.4,N
1568237375.7,286046999.2,N
1568237395.6,286046999.2,N
1568237415.4,286046998.8,N
1568237435.2,286046999.5,N
1568237455.1,286046999.2,N
1568237456.0,286046999.2,N
1568237475.8,286046999.5,N
1568237495.7,286046999.5,N
1568237515.5,286046997.2,Y
1568237535.3,286046997.1,P
1568237555.2,286046996.8,N
1568237575.0,286046999.4,N
1568237575.9,286046999.4,N
1568237595.7,286046996.6,N
1568237615.6,286046999.3,N
1568237635.4,286046996.6,N
1568237655.3,286046998.9,N
1568237675.1,286046998.8,N
1568237695.8,286046996.9,N
1568237715.7,286046997.7,N
1568237735.5,286046997.4,N
1568237755.4,286046997.3,N
1568237775.2,286046997.8,N
1568237795.0,286046997.7,N
1568237795.9,286046997.7,N
1568237815.8,286046997.4,N
1568237835.6,286046996.5,Y
1568237855.5,286046998.5,P
1568237875.3,286047001.1,P
1568237895.1,286047000.0,N
1568237915.9,286047000.6,N
1568237935.7,286047000.9,N
1568237955.6,286047000.7,N
1568237975.4,286046999.8,N
1568237995.2,286047000.3,N
1568238015.1,286047001.0,N
1568238016.0,286047001.0,N
1568238035.8,286047001.1,N
1568238055.7,286047000.9,N
1568238075.5,286047000.3,N
1568238095.3,286047000.3,N
1568238115.2,286047000.4,N
1568238135.0,286046998.2,N
1568238135.9,286046998.2,N
1568238155.7,286046998.1,N
1568238175.6,286047000.6,N
1568238195.4,286047001.1,N
1568238215.3,286046998.2,N
1568238235.1,286046999.3,N
1568238255.8,286046998.8,N
1568238275.7,286046998.1,N
1568238295.5,286046999.0,N
1568238315.4,286046998.8,N
1568238335.2,286047000.7,N
1568238355.0,286047001.0,N
1568238355.9,286047001.0,N
1568238375.8,286047001.0,N
1568238395.6,286046999.0,N
1568238415.5,286046998.4,N
1568238435.3,286046998.2,N
1568238455.1,286047000.8,N
1568238475.9,286047000.8,N
1568238495.7,286047000.3,N
1568238515.5,286047000.7,N
1568238535.4,286047001.0,N
1568238555.2,286047000.7,N
1568238575.1,286047001.2,N
1568238576.0,286047001.2,N
1568238595.8,286046998.5,N
1568238615.6,286046998.7,N
1568238635.5,286047000.9,N
1568238655.3,286047000.4,N
1568238675.2,286047000.1,N
1568238695.9,286047000.2,N
1568238715.7,286046999.1,N
1568238735.6,286046996.7,Y
1568238755.4,286046997.2,P
1568238775.2,286046999.4,N
1568238795.1,286046998.4,N
1568238796.0,286046998.4,N
1568238815.8,286046998.5,N
1568238835.7,286047001.1,N
1568238855.5,286047000.7,N
1568238875.3,286047000.7,N
1568238895.2,286047000.3,N
1568238915.0,286046998.2,N
1568238915.9,286046998.2,N
1568238935.8,286046998.4,N
1568238955.6,286046998.9,N
1568238975.4,286046998.6,N
1568238995.3,286046998.4,N
1568239015.1,286046998.2,N
1568239035.9,286047000.3,N
1568239055.7,286046999.9,N
1568239075.5,286046998.4,N
1568239095.4,286047000.9,N
1568239115.2,286047000.3,N
1568239135.0,286047002.4,N
1568239136.0,286047002.4,N
1568239155.8,286047000.4,N
1568239175.6,286047000.4,N
1568239195.5,286046999.7,N
